DW9872 Weather Reports


Display with metric or nautical units.
time (UTC)temp
F
wind
direction
speed
MPH
gust
MPH
rain 1hr
in
rain 24hr
in
rain mn
in
humidity
%
barometer
mb
20190220222204 29 313 0.0 3.0 0.00 0.00 0.00 92 1025.8
20190220221704 29 9 0.0 3.0 0.00 0.00 0.00 92 1026.0
20190220221204 29 159 0.0 3.0 0.00 0.00 0.00 92 1026.0
20190220220704 29 159 0.0 3.0 0.00 0.00 0.00 92 1026.1
20190220220204 29 25 0.0 3.0 0.00 0.00 0.00 92 1026.3
20190220215704 29 26 0.0 3.0 0.00 0.00 0.00 92 1026.4
20190220215204 29 15 1.0 3.0 0.00 0.00 0.00 92 1026.5
20190220214704 29 9 1.0 3.0 0.00 0.00 0.00 92 1026.7
20190220214204 29 350 1.0 3.0 0.00 0.00 0.00 92 1026.5
20190220213704 29 29 0.0 2.0 0.00 0.00 0.00 92 1026.6
20190220213205 28 331 0.0 2.0 0.00 0.00 0.00 92 1026.7
20190220212704 28 331 0.0 3.0 0.00 0.00 0.00 92 1026.7
20190220212204 28 349 0.0 3.0 0.00 0.00 0.00 92 1026.7
20190220211705 28 350 1.0 3.0 0.00 0.00 0.00 91 1026.7
20190220211204 28 22 1.0 3.0 0.00 0.00 0.00 91 1026.8
20190220210704 28 223 1.0 3.0 0.00 0.00 0.00 91 1026.8
20190220210204 28 38 1.0 3.0 0.00 0.00 0.00 91 1026.8
20190220205704 28 323 0.0 7.0 0.00 0.00 0.00 91 1026.9
20190220205205 28 55 1.0 7.0 0.00 0.00 0.00 91 1027.1
20190220204704 28 11 0.0 3.0 0.00 0.00 0.00 91 1027.2
20190220204204 28 246 0.0 3.0 0.00 0.00 0.00 91 1027.4
20190220203704 28 240 1.0 3.0 0.00 0.00 0.00 91 1027.5
20190220203204 28 5 0.0 3.0 0.00 0.00 0.00 91 1027.4
20190220202704 28 98 0.0 6.0 0.00 0.00 0.00 91 1027.5
20190220202204 28 98 1.0 6.0 0.00 0.00 0.00 91 1027.7
20190220201703 28 98 0.0 6.0 0.00 0.00 0.00 91 1027.8
20190220201204 28 247 0.0 2.0 0.00 0.00 0.00 91 1027.8
20190220200704 28 82 0.0 2.0 0.00 0.00 0.00 91 1027.9
20190220200204 28 82 0.0 4.0 0.00 0.00 0.00 91 1028.1
20190220195704 27 82 0.0 4.0 0.00 0.00 0.00 91 1028.1
20190220195203 27 26 1.0 4.0 0.00 0.00 0.00 91 1028.3
20190220194704 27 22 1.0 4.0 0.00 0.00 0.00 91 1028.4
20190220194203 27 13 0.0 5.0 0.00 0.00 0.00 91 1028.3
20190220193704 27 38 1.0 5.0 0.00 0.00 0.00 91 1028.2
20190220193204 27 38 1.0 5.0 0.00 0.00 0.00 91 1028.4
20190220192704 27 42 0.0 3.0 0.00 0.00 0.00 91 1028.5
20190220192205 27 74 1.0 3.0 0.00 0.00 0.00 90 1028.6
20190220191706 27 265 0.0 5.0 0.00 0.00 0.00 90 1028.6
20190220191204 27 304 0.0 5.0 0.00 0.00 0.00 90 1028.8
20190220190703 27 82 1.0 3.0 0.00 0.00 0.00 90 1028.8
20190220190204 27 287 0.0 2.0 0.00 0.00 0.00 90 1028.7
20190220185703 27 248 0.0 2.0 0.00 0.00 0.00 90 1028.8
20190220185204 27 263 0.0 9.0 0.00 0.00 0.00 91 1028.7
20190220184704 26 246 1.0 9.0 0.00 0.00 0.00 90 1029.0
20190220184205 26 223 2.0 9.0 0.00 0.00 0.00 90 1029.1
20190220183704 26 194 2.0 7.0 0.00 0.00 0.00 90 1029.5
20190220183204 26 217 1.0 7.0 0.00 0.00 0.00 90 1029.6
20190220182704 26 169 2.0 5.0 0.00 0.00 0.00 90 1029.6
20190220182204 26 161 2.0 5.0 0.00 0.00 0.00 90 1029.5
20190220181704 26 219 1.0 3.0 0.00 0.00 0.00 90 1029.5
20190220181205 26 355 1.0 4.0 0.00 0.00 0.00 90 1029.4
20190220180704 26 269 1.0 4.0 0.00 0.00 0.00 90 1029.5
20190220180204 26 295 1.0 5.0 0.00 0.00 0.00 90 1029.7
20190220175704 26 182 1.0 5.0 0.00 0.00 0.00 90 1029.9
20190220175204 26 13 1.0 3.0 0.00 0.00 0.00 90 1030.2
20190220174704 26 5 1.0 3.0 0.00 0.00 0.00 90 1030.4
20190220174204 26 36 1.0 4.0 0.00 0.00 0.00 90 1030.5
20190220173705 26 294 1.0 4.0 0.00 0.00 0.00 90 1030.6
20190220173204 26 18 1.0 8.0 0.00 0.00 0.00 90 1030.7
20190220172704 25 90 1.0 8.0 0.00 0.00 0.00 91 1031.0
20190220172204 25 42 2.0 6.0 0.00 0.00 0.00 91 1031.3
20190220171704 25 190 1.0 11.0 0.00 0.00 0.00 91 1031.3
20190220171204 25 53 2.0 11.0 0.00 0.00 0.00 91 1031.5
20190220170704 25 39 2.0 5.0 0.00 0.00 0.00 91 1032.0
20190220170204 25 28 1.0 5.0 0.00 0.00 0.00 91 1031.4
20190220165705 25 106 1.0 3.0 0.00 0.00 0.00 91 1031.6
20190220165204 25 257 1.0 4.0 0.00 0.00 0.00 91 1032.1
20190220164704 24 32 1.0 4.0 0.00 0.00 0.00 91 1032.2
20190220164204 24 36 1.0 4.0 0.00 0.00 0.00 91 1032.5
20190220163704 24 200 1.0 4.0 0.00 0.00 0.00 90 1032.5
20190220163204 24 83 1.0 5.0 0.00 0.00 0.00 90 1032.5
20190220162704 24 153 1.0 6.0 0.00 0.00 0.00 90 1032.6
20190220162203 24 240 1.0 6.0 0.00 0.00 0.00 90 1032.6
20190220161704 24 80 1.0 5.0 0.00 0.00 0.00 89 1032.9
20190220161204 24 61 1.0 4.0 0.00 0.00 0.00 89 1033.7
20190220160704 24 261 1.0 4.0 0.00 0.00 0.00 89 1033.8
20190220160204 24 341 1.0 4.0 0.00 0.00 0.00 88 1033.9
20190220155704 24 24 1.0 4.0 0.00 0.00 0.00 88 1033.9
20190220155204 24 224 1.0 7.0 0.00 0.00 0.00 88 1033.9
20190220154704 24 224 2.0 7.0 0.00 0.00 0.00 88 1033.9
20190220154204 24 222 2.0 6.0 0.00 0.00 0.00 88 1034.0
20190220153704 24 232 1.0 3.0 0.00 0.00 0.00 87 1034.1
20190220153204 25 201 1.0 3.0 0.00 0.00 0.00 87 1033.9
20190220152704 25 295 0.0 1.0 0.00 0.00 0.00 86 1033.9
20190220152204 25 173 0.0 2.0 0.00 0.00 0.00 85 1033.9
20190220151704 25 173 0.0 4.0 0.00 0.00 0.00 85 1034.0
20190220151204 25 173 1.0 4.0 0.00 0.00 0.00 83 1034.2
20190220150704 25 174 1.0 5.0 0.00 0.00 0.00 81 1034.2
20190220150204 25 178 0.0 5.0 0.00 0.00 0.00 79 1034.3
20190220145704 26 178 2.0 9.0 0.00 0.00 0.00 77 1034.5
20190220145204 26 221 2.0 9.0 0.00 0.00 0.00 73 1034.5
20190220144704 27 258 3.0 9.0 0.00 0.00 0.00 67 1034.6
20190220144204 27 180 2.0 6.0 0.00 0.00 0.00 63 1034.7
20190220143704 28 205 1.0 3.0 0.00 0.00 0.00 60 1034.7
20190220143204 28 202 0.0 1.0 0.00 0.00 0.00 60 1034.6
20190220142704 28 116 0.0 3.0 0.00 0.00 0.00 59 1034.4
20190220142204 28 117 0.0 6.0 0.00 0.00 0.00 60 1034.1
20190220141704 27 116 1.0 6.0 0.00 0.00 0.00 60 1034.1
20190220141204 27 175 1.0 6.0 0.00 0.00 0.00 60 1034.1
20190220140705 27 142 1.0 5.0 0.00 0.00 0.00 60 1034.1
20190220140204 27 239 0.0 2.0 0.00 0.00 0.00 61 1034.3
20190220135703 27 239 0.0 2.0 0.00 0.00 0.00 62 1034.4
20190220135204 27 115 0.0 2.0 0.00 0.00 0.00 62 1034.4
20190220134704 27 204 0.0 3.0 0.00 0.00 0.00 62 1034.4
20190220134204 27 204 0.0 3.0 0.00 0.00 0.00 62 1034.1
20190220133704 27 204 0.0 3.0 0.00 0.00 0.00 62 1034.4
20190220133204 27 169 0.0 2.0 0.00 0.00 0.00 62 1034.4
20190220132704 27 169 0.0 3.0 0.00 0.00 0.00 62 1034.5
20190220132204 27 170 0.0 3.0 0.00 0.00 0.00 61 1034.5
20190220131703 27 170 0.0 3.0 0.00 0.00 0.00 61 1034.6
20190220131204 27 69 0.0 2.0 0.00 0.00 0.00 61 1034.8
20190220130705 27 169 0.0 2.0 0.00 0.00 0.00 62 1035.1
20190220130205 27 70 0.0 2.0 0.00 0.00 0.00 60 1035.2
20190220125704 27 70 0.0 2.0 0.00 0.00 0.00 60 1034.7
20190220125204 27 69 0.0 3.0 0.00 0.00 0.00 59 1034.3
20190220124703 27 61 0.0 3.0 0.00 0.00 0.00 58 1034.0
20190220124204 27 84 0.0 3.0 0.00 0.00 0.00 59 1033.7
20190220123704 27 181 0.0 1.0 0.00 0.00 0.00 58 1033.5
20190220123203 27 181 0.0 1.0 0.00 0.00 0.00 59 1033.5
20190220122704 27 182 0.0 0.0 0.00 0.00 0.00 60 1033.5
20190220122204 27 182 0.0 2.0 0.00 0.00 0.00 60 1033.7
20190220121704 27 182 0.0 2.0 0.00 0.00 0.00 61 1033.8
20190220121204 27 182 0.0 2.0 0.00 0.00 0.00 59 1033.7
20190220120704 27 182 0.0 2.0 0.00 0.00 0.00 58 1033.6
20190220120204 27 182 0.0 3.0 0.00 0.00 0.00 57 1033.6
20190220115704 27 180 0.0 4.0 0.00 0.00 0.00 58 1033.6
20190220115204 27 180 1.0 4.0 0.00 0.00 0.00 58 1033.5
20190220114704 27 180 1.0 4.0 0.00 0.00 0.00 59 1033.5
20190220114205 27 204 1.0 3.0 0.00 0.00 0.00 60 1033.4
20190220113704 27 206 1.0 3.0 0.00 0.00 0.00 60 1033.6
20190220113204 27 355 0.0 1.0 0.00 0.00 0.00 61 1033.6
20190220112704 27 169 0.0 2.0 0.00 0.00 0.00 62 1033.3
20190220112203 27 170 0.0 2.0 0.00 0.00 0.00 62 1033.1
20190220111704 27 174 0.0 2.0 0.00 0.00 0.00 62 1032.8
20190220111204 27 171 0.0 3.0 0.00 0.00 0.00 63 1032.6
20190220110704 27 172 0.0 3.0 0.00 0.00 0.00 64 1033.0
20190220110204 26 172 0.0 0.0 0.00 0.00 0.00 66 1033.5
20190220105704 26 46 0.0 0.0 0.00 0.00 0.00 66 1033.6
20190220105205 26 46 0.0 1.0 0.00 0.00 0.00 68 1033.1
20190220104704 26 46 0.0 1.0 0.00 0.00 0.00 69 1033.3
20190220104204 26 46 0.0 1.0 0.00 0.00 0.00 71 1033.1
20190220103704 26 46 0.0 0.0 0.00 0.00 0.00 72 1033.6
20190220103203 26 46 0.0 0.0 0.00 0.00 0.00 71 1034.1
20190220102704 26 46 0.0 0.0 0.00 0.00 0.00 70 1034.3
20190220102204 26 46 0.0 0.0 0.00 0.00 0.00 73 1034.2
20190220101704 26 46 0.0 1.0 0.00 0.00 0.00 73 1033.8
20190220101204 26 46 0.0 1.0 0.00 0.00 0.00 74 1033.6
20190220100704 26 46 0.0 2.0 0.00 0.00 0.00 74 1033.7
20190220100204 26 46 0.0 2.0 0.00 0.00 0.00 74 1033.9
20190220095704 26 46 0.0 2.0 0.00 0.00 0.00 73 1033.8
20190220095204 26 46 0.0 2.0 0.00 0.00 0.00 72 1034.0
20190220094703 26 286 0.0 0.0 0.00 0.00 0.00 76 1034.2
20190220094204 26 286 0.0 0.0 0.00 0.00 0.00 75 1034.3
20190220093704 26 286 0.0 0.0 0.00 0.00 0.00 75 1034.3
20190220093205 26 286 0.0 0.0 0.00 0.00 0.00 74 1034.4
20190220092704 26 286 0.0 0.0 0.00 0.00 0.00 74 1034.3
20190220092204 26 286 0.0 0.0 0.00 0.00 0.00 75 1034.5
20190220091704 26 286 0.0 0.0 0.00 0.00 0.00 75 1034.5
20190220091203 26 286 0.0 0.0 0.00 0.00 0.00 76 1034.5
20190220090703 26 286 0.0 0.0 0.00 0.00 0.00 76 1034.3
20190220090204 26 286 0.0 0.0 0.00 0.00 0.00 75 1034.5
20190220085704 26 286 0.0 0.0 0.00 0.00 0.00 76 1034.7
20190220085204 26 286 0.0 0.0 0.00 0.00 0.00 77 1034.5
20190220084704 26 286 0.0 0.0 0.00 0.00 0.00 77 1034.7
20190220084204 26 286 0.0 1.0 0.00 0.00 0.00 77 1034.9
20190220083705 26 286 0.0 1.0 0.00 0.00 0.00 76 1035.1
20190220083204 26 286 0.0 0.0 0.00 0.00 0.00 75 1035.0
20190220082704 26 286 0.0 0.0 0.00 0.00 0.00 74 1034.9
20190220082204 26 286 0.0 0.0 0.00 0.00 0.00 74 1034.9
20190220081703 26 286 0.0 0.0 0.00 0.00 0.00 74 1035.0
20190220081204 26 286 0.0 0.0 0.00 0.00 0.00 74 1035.1
20190220080704 26 286 0.0 0.0 0.00 0.00 0.00 72 1035.2
20190220080204 26 286 0.0 0.0 0.00 0.00 0.00 70 1035.3
20190220075704 26 286 0.0 0.0 0.00 0.00 0.00 71 1035.3
20190220075204 26 286 0.0 0.0 0.00 0.00 0.00 71 1035.4
20190220074704 26 286 0.0 0.0 0.00 0.00 0.00 71 1035.5
20190220074204 26 286 0.0 0.0 0.00 0.00 0.00 70 1035.6
20190220073704 26 286 0.0 1.0 0.00 0.00 0.00 71 1035.5
20190220073204 26 286 0.0 1.0 0.00 0.00 0.00 70 1035.6
20190220072704 26 286 0.0 1.0 0.00 0.00 0.00 70 1035.7
20190220072204 26 286 0.0 0.0 0.00 0.00 0.00 73 1035.7
20190220071704 26 286 0.0 0.0 0.00 0.00 0.00 73 1035.5
20190220071204 26 286 0.0 0.0 0.00 0.00 0.00 74 1035.6
20190220070704 26 286 0.0 0.0 0.00 0.00 0.00 73 1035.6
20190220070205 26 286 0.0 0.0 0.00 0.00 0.00 72 1035.4
20190220065704 26 286 0.0 0.0 0.00 0.00 0.00 72 1035.3
20190220065204 26 286 0.0 0.0 0.00 0.00 0.00 72 1035.3
20190220064704 26 286 0.0 0.0 0.00 0.00 0.00 73 1035.4
20190220064204 26 286 0.0 0.0 0.00 0.00 0.00 73 1035.5
20190220063704 26 286 0.0 0.0 0.00 0.00 0.00 73 1035.3
20190220063204 26 286 0.0 0.0 0.00 0.00 0.00 73 1035.2
20190220062704 26 286 0.0 1.0 0.00 0.00 0.00 72 1035.0
20190220062204 26 286 0.0 1.0 0.00 0.00 0.00 70 1035.1
20190220061703 26 286 0.0 1.0 0.00 0.00 0.00 68 1034.8
20190220061204 26 286 0.0 0.0 0.00 0.00 0.00 70 1034.8
20190220060704 26 286 0.0 0.0 0.00 0.00 0.00 69 1034.6
20190220060204 26 286 0.0 0.0 0.00 0.00 0.00 67 1034.7
20190220055705 26 286 0.0 0.0 0.00 0.00 0.00 67 1034.8
20190220055204 26 286 0.0 0.0 0.00 0.00 0.00 67 1035.0
20190220054704 26 286 0.0 0.0 0.00 0.00 0.00 66 1035.1
20190220054204 26 286 0.0 0.0 0.00 0.00 0.00 67 1035.1
20190220053704 26 286 0.0 0.0 0.00 0.00 0.00 68 1035.2
20190220053204 26 286 0.0 0.0 0.00 0.00 0.00 68 1035.3
20190220052704 26 286 0.0 0.0 0.00 0.00 0.00 70 1035.3
20190220052204 26 286 0.0 0.0 0.00 0.00 0.00 71 1035.2
20190220051704 26 286 0.0 0.0 0.00 0.00 0.00 69 1035.2
20190220051204 26 286 0.0 1.0 0.00 0.00 0.00 68 1035.0
20190220050704 26 286 0.0 1.0 0.00 0.00 0.00 68 1034.8
20190220050204 26 286 0.0 1.0 0.00 0.00 0.00 68 1034.7
20190220045704 26 286 0.0 1.0 0.00 0.00 0.00 68 1034.7
20190220045204 26 286 0.0 1.0 0.00 0.00 0.00 68 1034.7
20190220044704 26 286 0.0 1.0 0.00 0.00 0.00 68 1034.6
20190220044204 26 286 0.0 0.0 0.00 0.00 0.00 67 1034.6
20190220043703 26 286 0.0 1.0 0.00 0.00 0.00 68 1034.7
20190220043204 26 286 0.0 1.0 0.00 0.00 0.00 67 1034.7
20190220042704 26 286 0.0 1.0 0.00 0.00 0.00 66 1034.6
20190220042204 26 286 0.0 0.0 0.00 0.00 0.00 66 1034.6
20190220041703 26 286 0.0 0.0 0.00 0.00 0.00 67 1034.5
20190220041205 26 286 0.0 0.0 0.00 0.00 0.00 67 1034.7
20190220040704 26 286 0.0 0.0 0.00 0.00 0.00 66 1034.8
20190220040204 26 286 0.0 0.0 0.00 0.00 0.00 66 1034.8
20190220035704 26 286 0.0 0.0 0.00 0.00 0.00 67 1034.8
20190220035204 26 286 0.0 0.0 0.00 0.00 0.00 67 1035.0
20190220034704 26 286 0.0 1.0 0.00 0.00 0.00 67 1034.8
20190220034204 27 286 0.0 2.0 0.00 0.00 0.00 67 1034.8
20190220033704 27 286 0.0 2.0 0.00 0.00 0.00 67 1034.7
20190220033204 27 286 0.0 2.0 0.00 0.00 0.00 64 1034.7
20190220032704 27 286 0.0 0.0 0.00 0.00 0.00 63 1034.7
20190220032204 27 286 0.0 1.0 0.00 0.00 0.00 63 1034.8
20190220031704 27 286 0.0 1.0 0.00 0.00 0.00 62 1034.8
20190220031204 27 286 0.0 2.0 0.00 0.00 0.00 61 1034.9
20190220030703 27 286 0.0 2.0 0.00 0.00 0.00 62 1034.9
20190220030204 27 286 1.0 2.0 0.00 0.00 0.00 61 1035.1
20190220025704 27 286 0.0 1.0 0.00 0.00 0.00 62 1035.2
20190220025204 27 286 0.0 0.0 0.00 0.00 0.00 60 1035.2
20190220024704 27 286 0.0 0.0 0.00 0.00 0.00 60 1035.3
20190220024204 27 286 0.0 0.0 0.00 0.00 0.00 58 1035.4
20190220023704 27 286 0.0 0.0 0.00 0.00 0.00 56 1035.4
20190220023204 27 286 0.0 0.0 0.00 0.00 0.00 55 1035.3
20190220022704 27 286 0.0 0.0 0.00 0.00 0.00 56 1035.2
20190220022204 27 286 0.0 0.0 0.00 0.00 0.00 57 1035.2
20190220021704 28 286 0.0 0.0 0.00 0.00 0.00 54 1035.2
20190220021204 28 286 0.0 0.0 0.00 0.00 0.00 54 1035.3
20190220020704 28 286 0.0 0.0 0.00 0.00 0.00 55 1035.3
20190220020204 28 286 0.0 0.0 0.00 0.00 0.00 55 1035.4
20190220015703 28 286 0.0 0.0 0.00 0.00 0.00 51 1035.3
20190220015203 28 286 0.0 0.0 0.00 0.00 0.00 52 1035.4
20190220014704 28 286 0.0 1.0 0.00 0.00 0.00 51 1035.4
20190220014204 29 286 0.0 1.0 0.00 0.00 0.00 49 1035.3
20190220013703 29 286 0.0 1.0 0.00 0.00 0.00 49 1035.4
20190220013204 29 286 0.0 2.0 0.00 0.00 0.00 50 1035.3
20190220012704 29 286 0.0 4.0 0.00 0.00 0.00 49 1035.3
20190220012204 29 286 1.0 4.0 0.00 0.00 0.00 51 1035.3
20190220011704 29 286 1.0 7.0 0.00 0.00 0.00 50 1035.4
20190220011204 29 48 1.0 7.0 0.00 0.00 0.00 49 1035.4
20190220010704 29 287 1.0 7.0 0.00 0.00 0.00 51 1035.4
20190220010204 29 310 1.0 4.0 0.00 0.00 0.00 49 1035.3
20190220005704 29 319 1.0 4.0 0.00 0.00 0.00 51 1035.3
20190220005204 29 340 1.0 4.0 0.00 0.00 0.00 50 1035.1
20190220004704 29 306 1.0 4.0 0.00 0.00 0.00 49 1035.2
20190220004204 29 298 0.0 2.0 0.00 0.00 0.00 51 1035.3
20190220003704 28 290 0.0 2.0 0.00 0.00 0.00 52 1035.4
20190220003204 28 288 0.0 2.0 0.00 0.00 0.00 53 1035.4
20190220002704 28 288 0.0 2.0 0.00 0.00 0.00 55 1035.5
20190220002204 28 288 0.0 2.0 0.00 0.00 0.00 54 1035.5
20190220001704 29 288 0.0 2.0 0.00 0.00 0.00 56 1035.5
20190220001204 29 287 0.0 3.0 0.00 0.00 0.00 51 1035.5
20190220000704 29 287 0.0 3.0 0.00 0.00 0.00 51 1035.5
20190220000205 29 287 0.0 3.0 0.00 0.00 0.00 50 1035.6
20190219235704 29 288 0.0 3.0 0.00 0.00 0.00 51 1035.5
20190219235204 29 288 0.0 3.0 0.00 0.00 0.00 51 1035.4
20190219234704 29 288 0.0 3.0 0.00 0.00 0.00 48 1035.5
20190219234204 29 290 0.0 3.0 0.00 0.00 0.00 49 1035.5
20190219233704 29 290 0.0 3.0 0.00 0.00 0.00 50 1035.4
20190219233204 29 287 0.0 2.0 0.00 0.00 0.00 51 1035.4
20190219232704 29 276 0.0 3.0 0.00 0.00 0.00 51 1035.3
20190219232204 29 276 0.0 3.0 0.00 0.00 0.00 51 1035.3
20190219231704 30 275 0.0 3.0 0.00 0.00 0.00 51 1035.2
20190219231203 30 275 0.0 2.0 0.00 0.00 0.00 50 1035.1
20190219230703 30 351 0.0 3.0 0.00 0.00 0.00 50 1035.1
20190219230204 30 351 0.0 3.0 0.00 0.00 0.00 49 1035.1
20190219225704 30 306 0.0 3.0 0.00 0.00 0.00 51 1034.9
20190219225204 30 290 0.0 2.0 0.00 0.00 0.00 50 1034.9
20190219224704 31 287 0.0 6.0 0.00 0.00 0.00 49 1034.8
20190219224204 31 287 0.0 6.0 0.00 0.00 0.00 49 1034.6
20190219223704 31 287 0.0 6.0 0.00 0.00 0.00 49 1034.5
20190219223204 31 302 0.0 4.0 0.00 0.00 0.00 48 1034.5
20190219222704 31 302 1.0 4.0 0.00 0.00 0.00 47 1034.4